Regional Weather Roundup
Issued by NWS

Home | Current Version | Previous Version | Graphics & Text | Print | Product List | Glossary On
Versions: 1 2 3 4 5 6 7 8 9 10 11 12 13 14 15 16 17 18 19 20 21 22 23 24 25 26 27
000
ASUS45 KBOU 270407
RWRCO

WEATHER ROUNDUP FOR COLORADO
NATIONAL WEATHER SERVICE DENVER/BOULDER CO
900 PM MST SUN FEB 26 2017

NOTE: "FAIR" INDICATES FEW OR NO CLOUDS BELOW 12000 FEET WITH NO
SIGNIFICANT WEATHER AND/OR OBSTRUCTIONS TO VISIBILITY.

COZ001>005-013-030-031-270500-
...NORTHWEST COLORADO...

CITY           SKY/WX    TMP DP  RH WIND       PRES   REMARKS
CRAIG          MOCLDY    17   6  62 SE5       29.80S WCI  10
HAYDEN         FAIR      16   1  53 SE5       29.79S WCI   9
MEEKER         CLOUDY    24  12  60 NE3       29.80S
MOUNT WERNER   NOT AVBL
STEAMBOAT SPGS FAIR      13   2  62 CALM      29.80S
WALDEN         NOT AVBL
$$

COZ006>008-011-270500-
...WEST CENTRAL VALLEYS...

CITY           SKY/WX    TMP DP  RH WIND       PRES   REMARKS
GRAND JUNCTION CLOUDY    34  10  37 E8        29.81F WCI  27
MONTROSE       MOCLDY    31  10  41 S7        29.87S WCI  24
EAGLE          PTCLDY    21   9  58 E9        29.84R WCI  11
RIFLE          FAIR      27  12  53 SE6       29.83S WCI  20
DELTA          MOCLDY    35   9  33 N7        29.85S WCI  29
NUCLA          MOCLDY    30  10  43 E6        29.88S WCI  24
$$

COZ017>023-064>068-270500-
...SOUTHWEST COLORADO...

CITY           SKY/WX    TMP DP  RH WIND       PRES   REMARKS
DURANGO        CLOUDY    27  15  61 CALM      29.90R
CORTEZ         FAIR      26  17  68 CALM      29.88S
PAGOSA SPRINGS FAIR      21  11  64 CALM      29.91R
TELLURIDE      FAIR      20   4  51 CALM      29.87S
WOLF CREEK PAS FAIR       7   1  78 S20G29    29.86R WCI -13
$$

COZ009-010-012-014-032>034-037-058>063-270500-
...CENTRAL COLORADO...

CITY           SKY/WX    TMP DP  RH WIND       PRES   REMARKS
ASPEN          FAIR      14   2  58 SW6       29.80S WCI   5
BUENA VISTA    FAIR      25   0  34 S6G17     29.81R WCI  18
COPPER MTN     FAIR       9  -6  52 MISG      29.72S
BERTHOUD PASS  FAIR       0  -9  65 NW18G29   29.67S WCI -22
COTTONWOOD PAS FAIR      21   1  42 W10G23    29.77R WCI  10
GUNNISON       FAIR       9   3  77 CALM      29.88R
KREMMLING      FAIR      25   9  50 CALM      29.80R
LEADVILLE      FAIR       2  -9  60 N3        29.76R
MONARCH PASS   FAIR       5   0  78 W38       29.84S WCI -21
SALIDA         FAIR      26   2  35 W8        29.90S WCI  18
SUNLIGHT       NOT AVBL
WILKERSON PASS FAIR       9  -4  56 SW16G25   29.73S WCI  -9
$$

COZ069>075-270500-
...SAN LUIS VALLEY/SANGRE DE CRISTO MOUNTAINS...

CITY           SKY/WX    TMP DP  RH WIND       PRES   REMARKS
ALAMOSA        FAIR      21  13  71 S9        29.86R WCI  11
LA VETA PASS   FAIR      18   3  53 SW30G46   29.76R WCI  -2
SAGUACHE       FAIR      21   5  49 NW13      29.86R WCI   9
$$

COZ035-036-038>040-270500-
...NORTHERN COLORADO FRONT RANGE...

CITY           SKY/WX    TMP DP  RH WIND       PRES   REMARKS
DENVER INTL AP FAIR      23   5  46 SE9       29.76S WCI  13
DMNS CITY PARK   N/A     29   0  28 NE7       29.78S WCI  22
AURORA         PTCLDY    25  -2  30 SE7       29.77S WCI  17
FRONT RANGE AP PTCLDY    27   7  43 NE5       29.77S WCI  21
ERIE MUNI ARPT FAIR      24   9  53 CALM      29.79R
BOULDER MUN AP FAIR      32   7  34 NE3       29.78R
CENTENNIAL     FAIR      25   5  42 S5        29.76S WCI  19
BROOMFIELD     PTCLDY    32  -2  23 N5        29.78R WCI  27
FORT COLLINS   FAIR      25  17  72 N9        29.80R WCI  15
LONGMONT       NOT AVBL
$$

COZ041-046-047-076>085-087-088-270500-
...PIKES PEAK/PALMER DIVIDE AND SOUTHERN FOOTHILLS...

CITY           SKY/WX    TMP DP  RH WIND       PRES   REMARKS
COLO. SPRINGS  FAIR      29  -6  22 NW7       29.78R WCI  22
A. F. ACADEMY  FAIR      30  -4  22 SW8       29.76S WCI  23
SCHRIEVER AFB  FAIR      26  -6  24 W9        29.79R WCI  17
ELLICOTT       NOT AVBL
FALCON         FAIR      27  -5  25 NW12      29.78S WCI  16
FORT CARSON    FAIR      34  -4  20 W10       29.77R WCI  26
LIMON          FAIR      22   5  48 S5        29.80R WCI  16
MONUMENT HILL  FAIR      23   3  42 W12       29.78R WCI  12
TRINIDAD       FAIR      31   1  28 SW3       29.81R
$$

COZ042>045-048>051-090-091-270500-
...NORTHEAST COLORADO...

CITY           SKY/WX    TMP DP  RH WIND       PRES   REMARKS
GREELEY ARPT   FAIR      19  13  77 N5        29.81R WCI  12
AKRON          FAIR      23  11  60 SE8       29.81R WCI  14
BURLINGTON     FAIR      25   7  46 SE14      29.83R WCI  13
WRAY           NOT AVBL
STERLING       FAIR      27  18  69 NE7       29.84R WCI  19
HOLYOKE        FAIR      25  19  80 SE6       29.87R WCI  18
FORT MORGAN    FAIR      23  15  70 NE10      29.81S WCI  12
$$

COZ086-089-092>099-270500-
...SOUTHEAST COLORADO...

CITY           SKY/WX    TMP DP  RH WIND       PRES   REMARKS
PUEBLO         FAIR      32  -5  20 W3        29.78S
LA JUNTA       FAIR      35   7  31 SE10      29.81S WCI  27
LAMAR          FAIR      32   8  36 SE10      29.81S WCI  24
SPRINGFIELD      N/A     31   8  38 SE12      29.84R WCI  22
$$




USA.gov is the U.S. government's official web portal to all federal, state and local government web resources and services.